Regional Weather Roundup
Issued by NWS Cleveland, OH

Home | Current Version | Previous Version | Graphics & Text | Print | Product List | Glossary On
Versions: 1 2 3 4 5 6 7 8 9 10 11 12 13 14 15 16 17 18 19 20 21 22 23 24 25 26 27 28 29 30 31 32 33 34 35 36 37 38 39 40 41 42 43 44 45 46 47 48 49 50
000
ASUS41 KCLE 292112
RWRCLE
OHIO REGIONAL WEATHER ROUNDUP
NATIONAL WEATHER SERVICE WILMINGTON, OH
500 PM EDT SUN MAY 29 2016

NOTE: "FAIR" INDICATES FEW OR NO CLOUDS BELOW 12,000 FEET WITH NO
SIGNIFICANT WEATHER AND/OR OBSTRUCTIONS TO VISIBILITY.

OHZ001>008-015>018-024>027-034-035-043-044-292200-
   NORTHWEST OHIO

CITY           SKY/WX    TMP DP  RH WIND       PRES   REMARKS
DEFIANCE       FAIR      88  57  34 W10G21    29.96F
FINDLAY        FAIR      86  63  45 S14       29.96F
TOLEDO EXPRESS LGT RAIN  82  61  48 S10G21    29.94F
TOLEDO EXEC    PTSUNNY   85  60  42 SW17G24   29.94F
LIMA           FAIR      86  60  41 SW14G24   29.98F
$$

OHZ009>014-019>023-028>033-038-089-292200-
   NORTHEAST OHIO

CITY           SKY/WX    TMP DP  RH WIND       PRES   REMARKS
CLE-HOPKINS    PTSUNNY   85  65  51 S13       30.02F
CLE-LAKEFRONT  FAIR      85  64  49 S12       29.99F
CUY CO. ARPT   CLOUDY    82  64  54 S12       30.02F
LORAIN-ELYRIA  FAIR      83  66  56 SW13      30.00F
ASHTABULA      FAIR      80  64  58 SW8       30.03F
AKRON-CANTON   PTSUNNY   79  63  57 SW12      30.06F
WOOSTER        FAIR      83  63  50 S13       30.05F
MANSFIELD      FAIR      82  63  52 S12       30.03F
YOUNGSTOWN     CLOUDY    79  65  62 S6        30.05F
$$

OHZ042-051>053-060>062-070>072-077>081-292200-
  SOUTHWEST OHIO

CITY           SKY/WX    TMP DP  RH WIND       PRES   REMARKS
CINC-COVINGTON FAIR      86  66  51 S10       30.03F
CINC-LUNKEN    FAIR      84  68  58 S12       30.01F
HAMILTON       FAIR      88  65  46 W8        30.02F HX  90
DAYTON         PTSUNNY   78  68  71 S14       30.02F THUNDER
WRIGHT-PAT AFB MOSUNNY   81  63  54 N8        30.00F THUNDER
DAYTON GENERAL PTSUNNY   81  67  62 SE9       30.02F
WILMINGTON     FAIR      84  65  52 SW13      30.03F
$$

OHZ036-037-039>041-045>050-054>059-063>069-073>076-082>088-292200-
  CENTRAL AND SOUTHEAST OHIO

CITY           SKY/WX    TMP DP  RH WIND       PRES   REMARKS
COLUMBUS       PTSUNNY   82  61  48 S9        30.02F
OSU AIRPORT    FAIR      83  66  56 S10       30.01F
BOLTON FIELD   MOSUNNY   84  68  58 S13       30.03F
RICKENBACK AFB FAIR      83  63  51 S10       30.02F
NEWARK         FAIR      84  62  47 S8        30.04F
MARION         FAIR      83  65  54 S14       30.00F
LANCASTER      FAIR      82  61  48 S8        30.05F
ZANESVILLE     PTSUNNY   79  64  60 S9        30.07S
NEW PHILLY     FAIR      81  66  60 SW5       30.06F
$$




USA.gov is the U.S. government's official web portal to all federal, state and local government web resources and services.